Regional Weather Roundup
Issued by NWS

Home | Current Version | Previous Version | Graphics & Text | Print | Product List | Glossary On
Versions: 1 2 3 4 5 6 7 8 9 10 11 12 13 14 15 16 17 18 19 20 21 22 23 24 25 26 27 28 29 30 31 32 33 34 35 36 37 38 39 40 41 42 43 44 45 46 47 48 49 50
000
ASUS43 KIND 111709
RWRIN

WEATHER ROUNDUP FOR INDIANA
NATIONAL WEATHER SERVICE INDIANAPOLIS IN
1200 PM EST THU FEB 11 2016

NOTE: "FAIR" INDICATES FEW OR NO CLOUDS BELOW 12,000 FEET WITH NO
SIGNIFICANT WEATHER AND/OR OBSTRUCTIONS TO VISIBILITY.

* - STATION DOES NOT REPORT WEATHER SUCH AS PRECIPITATION OR FOG.

+ - STATION NOT QUALITY CONTROLLED BY THE NATIONAL WEATHER SERVICE.
    USE DATA WITH CAUTION...ESPECIALLY DEWPOINT AND RELATIVE
    HUMIDITY OBSERVATIONS.

INZ001>003-010>013-019-020-111800-
NORTHWEST INDIANA

CITY           SKY/WX    TMP DP  RH WIND       PRES   REMARKS
GARY /AIRPORT/ MOSUNNY   19   7  58 NW10      30.33R WCI   8
KNOX *+        MOSUNNY   19   9  63 W10       30.30R WCI   8
LA PORTE +     LGT SNOW  21  17  83 W10       30.28S WCI  10
MICHIGAN CITY+ CLOUDY    21  10  63 N9        30.29S WCI  11
MONTICELLO +   SUNNY     20   6  54 NW9       30.30S WCI   9
RENSSELAER +   SUNNY     21  -2  35 NW5       30.32S WCI  15
VALPARAISO     PTSUNNY   19  10  68 NW13      30.30R WCI   6

$$

LMZ046-743>745-111800-
SOUTHERN LAKE MICHIGAN

STATION/POSITION TIME  TEMP    WIND        PRES    WAVE
                       AIR SEA DIR/SP/G            HT
                 (UTC) (F)     (DEG/KT/KT) (MB)    (FT)
BURNS HARBOR     1600   17     300/ 14/ 19 1026.4R
MICHIGAN CITY    1600   20     310/ 10/ 12   N/A

$$

INZ004-005-014>016-021>024-111800-
NORTH CENTRAL INDIANA

CITY           SKY/WX    TMP DP  RH WIND       PRES   REMARKS
ELKHART        CLOUDY    19  10  68 SW7       30.26R WCI  10
GOSHEN         CLOUDY    17  10  74 W8        30.26R WCI   7
LOGANSPORT +   SUNNY     21   5  49 NW5       30.30S WCI  15
PERU/GRISSOM   MOSUNNY   19  10  67 NW10      30.27R WCI   7
ROCHESTER +    MOSUNNY   21   9  58 W8        30.28S WCI  12
SOUTH BEND     LGT SNOW  18  12  77 W8        30.27S VSB 1   WCI   8
WARSAW +       MOSUNNY   21  10  63 NW7       30.26S WCI  13

$$

INZ006>009-017-018-025>027-111800-
NORTHEAST INDIANA

CITY           SKY/WX    TMP DP  RH WIND       PRES   REMARKS
ANGOLA *+      CLOUDY    18   7  62 NW5       30.22S WCI  11
AUBURN +       MOSUNNY   21  10  63 W6        30.26S WCI  14
FORT WAYNE     LGT SNOW  29  11  47 NW6       30.27S WCI  23
HUNTINGTON +   MOSUNNY   19   7  58 NW7       30.27F WCI  10

$$

INZ028-029-035-036-043>045-051>053-111800-
WEST CENTRAL INDIANA

CITY           SKY/WX    TMP DP  RH WIND       PRES   REMARKS
GREENCASTLE +  SUNNY     19  -2  38 CALM      30.31S
LAFAYETTE      SUNNY     20   5  52 N9        30.32R WCI   9
TERRE HAUTE    SUNNY     19   3  49 NW6       30.34R WCI  11

$$

INZ030>032-037>040-046>048-054>057-064-065-111800-
CENTRAL INDIANA

CITY           SKY/WX    TMP DP  RH WIND       PRES   REMARKS
ANDERSON       MOSUNNY   19   9  63 NW12      30.29R WCI   7
COLUMBUS       SUNNY     19   9  63 N6        30.32S WCI  11
FRANKFORT +    SUNNY     21   2  42 NW5       30.31S WCI  15
INDIANAPOLIS   MOSUNNY   21   5  50 CALM      30.29S
-EAGLE CREEK   SUNNY     21   6  52 NW5       30.29S WCI  15
KOKOMO *+      SUNNY     19  10  68 NW8       30.28S WCI   9
MARION +       SUNNY     17   3  54 NW6       30.29S WCI   9
MT COMFORT *+  SUNNY     21   5  49 W3        30.29S
SHELBYVILLE    SUNNY     20   7  57 W3        30.30R
ZIONSVILLE +   SUNNY     19   7  60 NW3       30.29S

$$

INZ033-034-041-042-049-050-058-059-111800-
EAST CENTRAL INDIANA

CITY           SKY/WX    TMP DP  RH WIND       PRES   REMARKS
MUNCIE         MOSUNNY   19   8  62 NW10      30.28R WCI   7

$$

INZ060-061-067>069-081>083-085>088-111800-
SOUTHWEST INDIANA

CITY           SKY/WX    TMP DP  RH WIND       PRES   REMARKS
EVANSVILLE     CLOUDY    27  13  55 N7        30.34S WCI  19
HUNTINGBURG *+ SUNNY     25  10  54 N6        30.32S WCI  18
WASHINGTON +   SUNNY     24   7  49 N5        30.33S WCI  18

$$

INZ062-063-066-070>080-084-089>092-111800-
SOUTH CENTRAL AND SOUTHEAST INDIANA

CITY           SKY/WX    TMP DP  RH WIND       PRES   REMARKS
BLOOMINGTON    SUNNY     21   7  54 NE5       30.30R WCI  15
MADISON *+     SUNNY     23   5  46 CALM      30.31S
NORTH VERNON + SUNNY     19   7  58 CALM      30.31R
SEYMOUR +      SUNNY     25   7  46 CALM      30.32S

$$




USA.gov is the U.S. government's official web portal to all federal, state and local government web resources and services.